Location: Tel Aviv
(32.0670°N, 34.7670°E)
Time: 03:36:19
(UTC+03:00)

Tiros 1 - Pass Details

Date: 21 January 2022
Orbit: 629 x 663 km, 48.4° (Epoch: 26 May)

Event Time Altitude Azimuth Distance (km) Brightness Sun altitude
Rises 23:24:26 0° 245° (WSW) 2,984 - -76.2°
Reaches altitude 10° 23:26:52 10° 251° (WSW) 2,073 - -76.4°
Maximum altitude 23:31:28 46° 325° (NW) 885 - -76.8°
Drops below altitude 10° 23:36:05 10° 39° (NE) 2,071 - -77.2°
Sets 23:38:31 0° 46° (NE) 2,980 - -77.3°
